Вернуться в каталог

OPS 4682 DEB

АктивенPO
NORAD 59150·DEBRIS·🇺🇸 United States

Запущен Apr 3, 1965 с Vandenberg Space Force Base

Loading…

Ближайшие Пролёты (ближайшие 24 часа)

TLE

СвежийSource: Space-Track

Эпоха: Sep 13, 2026, 17:46 UTC

1 59150U 65027HS  26256.74048232  .00000290  00000-0  95293-3 0  9993
2 59150  90.2529   6.2017 0029543 126.7265 233.6576 12.98920374515500

Отслеживайте OPS 4682 DEB в реальном времени с AllMySat

Download on the App Store